Simultaneous Nadir Overpasses (SNOs) Predictions

Prediction of SNOs between NOAA-19 and NPP Satellite Orbit:

Table of predicted SNOs for the next 14.0 days since TLE Epoch: 6/4/2022
Index Date (NOAA-19) Time (NOAA-19) Lat,Lon (NOAA-19) SZA (NOAA-19 ) Date (NPP) Time (NPP) Lat,Lon (NPP) SZA (NPP ) Distance(km) Time Diff (sec)
1 06/12/2022 05:36:04 -76.76,-104.37 125.53 06/12/2022 05:37:17 -76.82,-103.71 125.57 17.64 73
2 06/12/2022 06:27:06 76.86, 63.30 54.53 06/12/2022 06:28:04 76.88, 63.34 54.52 2.25 58
3 06/12/2022 07:18:01 -76.89,-129.34 125.47 06/12/2022 07:18:49 -76.90,-129.44 125.46 3.34 48
4 06/12/2022 08:09:05 76.90, 37.97 54.54 06/12/2022 08:09:34 76.88, 37.96 54.51 2.16 29
5 06/12/2022 09:00:01 -76.88,-154.85 125.48 06/12/2022 09:00:19 -76.90,-154.82 125.46 2.73 18
6 06/12/2022 09:51:05 76.90, 12.45 54.54 06/12/2022 09:51:05 76.93, 12.40 54.57 3.44 0
7 06/12/2022 10:42:00 -76.92, 179.82 125.46 06/12/2022 10:41:49 -76.91, 179.81 125.47 1.57 11
8 06/12/2022 11:33:04 76.94, -12.88 54.55 06/12/2022 11:32:35 76.93, -12.97 54.56 2.51 29
9 06/12/2022 12:24:00 -76.92, 154.30 125.47 06/12/2022 12:23:19 -76.91, 154.43 125.47 3.40 41
10 06/12/2022 13:15:04 76.93, -38.39 54.55 06/12/2022 13:14:05 76.93, -38.35 54.56 1.21 59
11 06/12/2022 14:05:59 -76.95, 128.97 125.45 06/12/2022 14:04:50 -76.95, 128.87 125.42 2.40 69



Historial Predications of SNOs between NOAA-19 and NPP
